Location: Rutesheim
(48.8081°N, 8.9460°E)
Time: 01:01:40
(UTC+00:00)

Daily predictions for brighter satellites

Satellite Brightness Start Highest point End
(mag) Time Altitude Azimuth Time Altitude Azimuth Time Altitude Azimuth
CENTAUR R/B 4.4 02:05:13 26° N 02:05:13 26° N 02:10:40 10° NE
ACS3 Solar Sail 3.6 02:00:29 10° NNE 02:03:45 26° ENE 02:03:45 26° ENE
Cosmos 2360 Rocket 4.2 02:17:23 23° NE 02:17:23 23° NE 02:19:35 10° NE
USA 234 4.4 02:07:47 10° ESE 02:11:31 36° E 02:11:31 36° E
Cosmos 2322 Rocket 4.3 02:17:42 23° NE 02:17:42 23° NE 02:19:47 10° NE
SL-16 R/B 4.3 02:24:11 20° NNE 02:24:11 20° NNE 02:25:49 10° NNE
Cosmos 1943 Rocket 4.4 02:24:45 17° NNE 02:25:42 18° NE 02:29:26 10° E
ADEOS Rocket 3.7 02:33:18 10° NNE 02:38:45 58° ENE 02:38:45 58° ENE
CZ-2C R/B 4.4 02:37:45 10° NE 02:41:57 26° E 02:42:20 26° E
Cosmos 2219 Rocket 3.1 02:55:06 45° ENE 02:55:06 45° ENE 02:59:21 10° NE
BREEZE-M DEB (TANK) 4.4 02:53:28 76° WSW 02:53:59 79° SSW 03:17:59 10° ESE
USA 267 3.1 03:13:14 10° NE 03:19:49 87° SE 03:20:18 78° SW
Cosmos 2228 Rocket 4.2 03:26:01 42° ENE 03:26:01 42° ENE 03:29:25 10° NNE
Cosmos 1980 Rocket 4.5 03:27:56 12° N 03:27:56 12° N 03:28:49 10° N
Cosmos 1269 Rocket 4.5 03:29:01 43° N 03:30:29 59° ENE 03:35:41 10° SE
H-2A R/B 3.9 03:26:40 10° N 03:28:05 19° N 03:28:05 19° N
USA 238 DEB 4.3 03:33:04 38° NNW 03:33:04 38° NNW 03:39:19 10° NE
USA 238 4.3 03:33:10 39° NNW 03:33:10 39° NNW 03:39:25 10° NE
Cosmos 2278 Rocket 3.3 03:29:48 20° N 03:33:20 41° NE 03:38:39 10° ESE
Cosmos 2173 Rocket 4.3 03:31:26 10° N 03:37:30 64° ENE 03:43:31 10° SSE
Cosmos 2333 Rocket 3.3 03:39:30 31° NNW 03:39:30 31° NNW 03:43:12 10° NNE
ADEOS II 4.2 03:39:10 10° N 03:39:55 13° N 03:39:55 13° N
COSMOS 2455 3.3 03:45:06 44° NNW 03:45:06 44° NNW 03:50:21 10° NNE
Lacrosse 5 rocket 3.2 03:46:58 18° NNE 03:46:58 18° NNE 03:48:09 10° NE
Cosmos 1153 Rocket 4.3 03:39:53 10° NNW 03:46:02 73° W 03:52:14 10° S
Cosmos 2298 Rocket 4.1 03:46:57 59° NNW 03:46:57 59° NNW 03:51:35 10° NNE
Cosmos 1939 Rocket 3.7 03:43:32 10° NNE 03:47:17 46° E 03:48:49 29° SSE
ACS3 Solar Sail 2.2 03:43:16 10° N 03:47:53 43° NW 03:47:53 43° NW
BlueWalker 3 3.0 03:53:51 37° SE 03:53:51 37° SE 03:56:10 10° ESE
CENTAUR R/B 4.3 03:52:18 18° NNW 03:57:01 32° NNE 04:04:44 10° E
USA 234 3.3 03:50:57 10° SE 03:57:22 56° SW 03:58:53 46° W
Cosmos 2360 Rocket 3.0 03:59:09 34° NNW 03:59:09 34° NNW 04:03:31 10° NNE
Cosmos 2322 Rocket 3.2 03:59:32 31° NNW 03:59:32 31° NNW 04:03:41 10° NNE
Helios 1A Rocket 4.1 03:57:17 10° SE 04:00:22 33° ENE 04:02:41 15° N
Gbstr 26 Del rocket 3.8 03:59:16 42° SSW 04:00:40 58° SSE 04:06:24 10° ENE
SL-16 R/B 3.7 04:06:02 20° NNW 04:06:02 20° NNW 04:09:18 10° N
Cosmos 44 Rocket 3.3 04:05:02 54° NW 04:06:12 78° SW 04:11:21 10° SSE
Cosmos 2016 Rocket 4.4 04:02:24 10° N 04:08:47 67° ENE 04:15:06 10° SSE
Cosmos 1943 Rocket 2.3 04:06:17 18° NNW 04:10:26 74° ENE 04:15:55 10° SE
Meteor 2-14 Rocket 4.3 04:05:51 10° SSW 04:11:56 69° WNW 04:18:01 10° N
Okean 1-7 3.6 04:13:10 40° NNW 04:13:10 40° NNW 04:16:08 10° N
H-2A R/B 3.9 04:08:32 10° N 04:11:15 42° N 04:11:15 42° N
ARGOS 3.3 04:09:36 10° N 04:14:50 50° WNW 04:16:17 39° WSW
NOSS 2-1 (C) 2.8 04:14:58 76° ESE 04:14:58 76° ESE 04:17:56 10° NE
PAYLOAD A 4.0 04:10:20 10° N 04:15:42 64° WNW 04:20:29 13° SSW
Cosmos 1908 Rocket 3.5 04:11:58 10° N 04:16:26 87° ENE 04:20:51 10° S
Cosmos 1140 Rocket 3.3 04:15:56 30° NW 04:18:27 67° WSW 04:23:30 10° S
NOSS 2-1 (D) 2.7 04:19:05 81° NE 04:19:05 81° NE 04:21:58 10° NE
CZ-2C R/B 2.6 04:15:24 10° N 04:20:11 48° WNW 04:21:32 38° WSW
Timation 2 Rocket 4.0 04:14:49 16° NNW 04:20:24 78° WSW 04:26:47 10° SSE
Cosmos 1300 Rocket 4.2 04:16:54 10° N 04:21:12 56° ENE 04:25:25 10° SSE
Cosmos 1809 Rocket 4.5 04:17:58 10° SSW 04:23:55 55° WNW 04:29:55 10° N
ADEOS Rocket 3.9 04:19:28 10° N 04:24:56 30° WNW 04:25:40 30° WNW
Cosmos 2061 Rocket 4.5 04:22:38 10° N 04:28:49 62° ENE 04:34:56 10° SSE
NOSS 3-1 (C) 2.9 04:27:25 30° SW 04:29:51 74° NW 04:35:41 10° NE
Iridium 4 Rocket 3.0 04:27:18 10° N 04:31:43 83° E 04:35:53 10° S
Cosmos 2100 Rocket 4.0 04:26:10 10° NNW 04:32:06 52° W 04:38:02 10° SSW
SJ 16-02 3.3 04:28:47 10° N 04:32:29 27° ENE 04:36:09 10° ESE
Cosmos 2219 Rocket 3.0 04:36:49 28° WNW 04:38:03 31° NW 04:43:06 10° NNE
IRS-1D 3.4 04:35:18 10° NNE 04:40:19 89° W 04:45:15 10° SSW
SL-24 R/B - RUBIN 2 4.5 04:39:23 30° W 04:41:04 38° NW 04:45:37 10° NNE
NOSS 0 Rocket 3.9 04:38:00 10° SSW 04:44:08 87° ESE 04:50:20 10° NNE
COSMOS 2428 2.7 04:42:01 10° SW 04:47:38 60° WNW 04:53:17 10° NNE
USA 59 Rocket -0.3 04:50:47 35° WNW 04:51:16 38° NW 04:54:04 10° NNE
SL-08 RB Rocket 4.5 04:47:45 10° N 04:51:41 29° WNW 04:53:29 22° WSW
Cosmos 1459 Rocket 4.4 04:47:19 10° NNW 04:53:14 42° W 04:59:06 10° SSW
Cosmos 2322 3.9 04:50:01 12° SW 04:55:10 47° NW 05:00:40 10° NNE
FengYun 1-2 T 4.3 04:51:22 10° N 04:56:47 55° WNW 05:02:13 10° SW
COSMO-SKYMED 1 2.3 04:54:26 10° S 04:58:32 69° WSW 05:02:40 10° NNW
SKYMED 2 3.7 04:55:40 10° S 04:59:53 49° W 05:04:08 10° NNW
Cosmos 407 Rocket 3.5 04:55:22 10° NNW 05:00:23 56° WSW 05:05:21 10° S
USA 267 3.6 04:56:20 10° ENE 05:02:35 50° NNW 05:07:39 16° W
Cosmos 1484 Rocket 3.2 04:59:24 10° NNE 05:02:55 57° E 05:06:24 10° S
Cosmos 2228 Rocket 4.3 05:03:28 20° WNW 05:03:33 20° WNW 05:06:49 10° NNW
Cosmos 1725 Rocket 4.2 04:57:42 10° NNW 05:03:45 50° W 05:09:46 10° SSW
Cosmos 1980 3.7 05:01:41 10° SSW 05:07:20 85° WNW 05:13:02 10° NNE
Cosmos 1802 Rocket 4.4 05:05:42 10° NNW 05:11:33 40° W 05:17:19 10° SSW
Cosmos 1656 Rocket 4.2 05:07:55 10° NNW 05:13:34 61° ENE 05:19:11 10° SE
NOSS 3-1 (A) 2.9 05:09:14 10° SW 05:13:59 80° NW 05:19:51 10° NE
Cosmos 2233 Rocket 4.1 05:08:50 10° NNW 05:15:02 59° W 05:21:10 10° S
Cosmos 2278 Rocket 2.7 05:12:10 10° NW 05:17:22 39° WSW 05:22:33 10° S
Cosmos 1703 Rocket 4.2 05:14:00 10° SW 05:17:53 31° WNW 05:21:49 10° N
Cosmos 2251 Rocket 3.5 05:13:55 10° NNW 05:19:16 70° WSW 05:24:35 10° SSE
Cosmos 304 Rocket 4.1 05:14:53 10° NNW 05:19:39 68° ENE 05:24:23 10° SSE
Cosmos 1939 Rocket 4.2 05:18:16 10° NNW 05:20:56 18° WNW 05:23:34 10° WSW
NOSS 2-1 (E) 3.7 05:18:52 15° W 05:21:07 29° NW 05:23:52 10° NNE
CZ-3 R/B 4.1 05:18:39 10° SW 05:22:03 12° SSW 05:24:36 10° SSE
Lacrosse 5 rocket 2.6 05:20:39 12° NW 05:22:51 20° N 05:25:25 10° NE
Cosmos 2237 Rocket 2.2 05:17:59 10° SW 05:23:39 71° WNW 05:29:19 10° NNE
Cosmos 2333 Rocket 4.1 05:21:44 10° NW 05:23:55 12° NNW 05:26:07 10° N
IGS 5A 3.8 05:21:53 10° NNE 05:25:54 69° E 05:29:54 10° S
Cosmos 2292 Rocket 4.3 05:24:20 10° SW 05:28:23 38° WNW 05:33:32 10° N
BlueWalker 3 3.7 05:27:40 11° W 05:29:38 15° SW 05:31:49 10° S
ACS3 Solar Sail 3.5 05:29:42 10° NW 05:30:37 10° NW 05:31:33 10° WNW
Cosmos 2151 Rocket 4.5 05:27:31 10° N 05:31:57 54° ENE 05:36:20 10° SSE
COSMOS 2455 4.5 05:28:15 10° WNW 05:32:04 17° NNW 05:35:59 10° NNE
Meteor 1-24 Rocket 4.4 05:28:07 10° SW 05:33:10 31° WNW 05:38:07 10° N
Helios 1A Rocket 4.0 05:30:48 10° SW 05:33:11 18° W 05:35:36 10° NW
Cosmos 2242 Rocket 3.5 05:29:52 10° S 05:34:14 85° WNW 05:38:40 10° N
Cosmos 2369 Rocket 3.1 05:29:51 10° NNW 05:35:23 51° NE 05:40:55 10° SE
Cosmos 1782 Rocket 4.5 05:34:20 10° NNW 05:38:05 27° W 05:41:46 10° SSW
Cosmos 1624 Rocket 4.2 05:34:45 10° SSW 05:39:55 79° ESE 05:45:07 10° NNE
Cosmos 968 Rocket 4.3 05:36:45 10° NNW 05:41:54 53° ENE 05:47:01 10° SE
Cosmos 2360 Rocket 4.1 05:42:26 10° NW 05:44:06 11° NNW 05:45:46 10° N
Cosmos 2322 Rocket 4.2 05:43:24 10° NW 05:44:33 11° NNW 05:45:41 10° NNW
Cosmos 1420 Rocket 4.1 05:40:31 10° SW 05:45:43 60° WNW 05:50:59 10° NNE
Cosmos 1674 Rocket 4.3 05:42:51 10° S 05:47:12 61° E 05:51:35 10° NNE
Gbstr 26 Del rocket 3.8 05:42:01 10° W 05:47:15 71° N 05:53:44 10° ENE
CENTAUR R/B 3.7 05:41:09 10° NW 05:49:09 66° NE 05:58:27 10° SE
ARIANE 5 R/B 3.4 05:45:32 10° NNE 05:50:31 57° ESE 05:55:31 10° S
